Terminal Aerodrome Forecast
Issued by NWS

Current Version | Previous Version | Text Only | Print | Product List | Glossary On
Versions: 1 2 3 4 5 6 7 8 9 10 11 12 13 14 15 16 17 18 19 20 21 22 23 24 25 26 27 28 29 30 31 32 33 34 35 36
000
FTAK31 PANC 020242 AAA
TAFASN
TAF AMD
PASN 020242Z 0203/0224 13007KT 2SM BR BKN002
     FM020500 11005KT 1/2SM FG VV002
     FM022100 08005KT 3SM BR BKN008=

USA.gov is the U.S. government's official web portal to all federal, state and local government web resources and services.